DW8492 Weather Reports


Display with metric or nautical units.
time (UTC)temp
F
wind
direction
speed
MPH
gust
MPH
rain 1hr
in
rain 24hr
in
rain mn
in
humidity
%
barometer
mb
20260901190044 90 175 3.0 8.0 0.00 0.00 0.00 59 1013.9
20260901184502 89 203 3.0 9.0 0.00 0.00 0.00 63 1013.9
20260901183100 89 242 3.0 6.0 0.00 0.00 0.00 63 1014.0
20260901181507 89 282 3.0 11.0 0.00 0.00 0.00 63 1014.2
20260901180022 88 248 4.0 11.0 0.00 0.00 0.00 63 1014.4
20260901174559 89 218 4.0 10.0 0.00 0.00 0.00 64 1014.3
20260901173201 89 277 2.0 9.0 0.00 0.00 0.00 65 1014.4
20260901171547 88 242 3.0 10.0 0.00 0.00 0.00 67 1014.5
20260901170108 87 159 1.0 8.0 0.00 0.00 0.00 68 1014.5
20260901164532 87 210 3.0 7.0 0.00 0.00 0.00 69 1014.6
20260901163002 86 198 1.0 7.0 0.00 0.00 0.00 73 1014.5
20260901161541 85 207 2.0 7.0 0.00 0.00 0.00 73 1014.8
20260901160105 84 309 2.0 6.0 0.00 0.00 0.00 73 1014.8
20260901154526 84 252 2.0 9.0 0.00 0.00 0.00 73 1014.8
20260901151524 84 223 1.0 6.0 0.00 0.00 0.00 76 1014.6
20260901150103 82 211 2.0 7.0 0.00 0.00 0.00 78 1014.5
20260901144527 81 240 2.0 7.0 0.00 0.00 0.00 80 1014.6
20260901143002 79 240 0.0 5.0 0.00 0.00 0.00 84 1014.7
20260901141540 78 279 2.0 5.0 0.00 0.00 0.00 84 1014.7
20260901140100 78 214 2.0 6.0 0.00 0.00 0.00 84 1014.7
20260901134525 78 188 1.0 5.0 0.00 0.00 0.00 86 1014.7
20260901133027 77 209 1.0 6.0 0.00 0.00 0.00 88 1014.8
20260901131558 76 279 1.0 4.0 0.00 0.00 0.00 89 1014.7
20260901130128 76 229 1.0 5.0 0.00 0.00 0.00 89 1014.9
20260901123041 75 184 2.0 4.0 0.00 0.00 0.00 90 1015.2
20260901121501 74 232 0.0 3.0 0.00 0.00 0.00 91 1015.1
20260901120041 74 219 1.0 4.0 0.00 0.00 0.00 91 1015.1
20260901114505 74 168 0.0 5.0 0.00 0.00 0.00 92 1014.9
20260901113154 73 235 0.0 3.0 0.00 0.00 0.00 92 1015.0
20260901111504 73 225 0.0 4.0 0.00 0.00 0.00 92 1014.9
20260901110042 73 212 1.0 5.0 0.00 0.00 0.00 93 1014.9
20260901104506 73 238 0.0 2.0 0.00 0.00 0.00 93 1014.8
20260901103032 72 263 0.0 4.0 0.00 0.00 0.00 94 1014.8
20260901101614 72 246 0.0 4.0 0.00 0.00 0.00 94 1014.8
20260901100032 72 223 0.0 0.0 0.00 0.00 0.00 94 1014.9
20260901094605 72 221 0.0 2.0 0.00 0.00 0.00 94 1015.0
20260901093026 72 215 0.0 3.0 0.00 0.00 0.00 94 1014.9
20260901091607 73 304 0.0 3.0 0.00 0.00 0.00 94 1015.0
20260901084618 73 236 0.0 2.0 0.00 0.00 0.00 94 1014.9
20260901083016 73 267 0.0 3.0 0.00 0.00 0.00 94 1014.9
20260901081605 73 234 0.0 3.0 0.00 0.00 0.00 94 1014.9
20260901080026 73 238 1.0 3.0 0.00 0.00 0.00 93 1014.9
20260901074633 73 209 0.0 3.0 0.00 0.00 0.00 93 1015.0
20260901073044 73 247 0.0 3.0 0.00 0.00 0.00 93 1014.9
20260901071611 73 261 0.0 2.0 0.00 0.00 0.00 93 1015.0
20260901070042 73 188 0.0 3.0 0.00 0.00 0.00 93 1015.2
20260901064503 73 244 0.0 4.0 0.00 0.00 0.00 93 1015.2
20260901063042 73 229 1.0 3.0 0.00 0.00 0.00 93 1015.3
20260901061509 74 209 0.0 4.0 0.00 0.00 0.00 92 1015.4
20260901054535 74 246 0.0 3.0 0.00 0.00 0.00 92 1015.7
20260901053102 74 212 2.0 5.0 0.00 0.00 0.00 92 1015.9
20260901051521 74 197 1.0 4.0 0.00 0.00 0.00 93 1015.8
20260901050051 74 269 0.0 0.0 0.00 0.00 0.00 94 1015.8
20260901044508 74 270 0.0 0.0 0.00 0.00 0.00 94 1015.5
20260901043051 74 269 0.0 0.0 0.00 0.00 0.00 95 1015.6
20260901041523 74 269 0.0 0.0 0.00 0.00 0.00 95 1015.7
20260901040134 73 268 0.0 0.0 0.00 0.00 0.00 95 1015.8
20260901034528 73 268 0.0 0.0 0.00 0.00 0.00 95 1015.6
20260901033101 72 268 0.0 0.0 0.00 0.00 0.00 94 1015.3
20260901031526 72 268 0.0 0.0 0.00 0.00 0.00 94 1015.1
20260901030103 72 268 0.0 0.0 0.00 0.00 0.00 94 1015.1
20260901024510 73 268 0.0 0.0 0.00 0.00 0.00 94 1015.3
20260901023032 73 268 0.0 0.0 0.00 0.00 0.00 93 1015.5
20260901021507 73 268 0.0 0.0 0.00 0.00 0.00 93 1015.6
20260901020038 73 268 0.0 0.0 0.00 0.00 0.00 92 1015.8
20260901014611 74 268 0.0 0.0 0.00 0.00 0.00 92 1016.0
20260901013040 74 268 0.0 0.0 0.00 0.00 0.00 91 1016.0
20260901011502 75 268 0.0 0.0 0.00 0.00 0.00 90 1015.9
20260901010121 75 268 0.0 0.0 0.00 0.00 0.00 89 1015.8
20260901004538 76 268 0.0 0.0 0.00 0.00 0.00 87 1015.7
20260901003008 77 264 0.0 0.0 0.00 0.00 0.00 86 1015.5
20260901001539 77 264 0.0 0.0 0.00 0.00 0.00 83 1015.6
20260901000002 78 264 0.0 0.0 0.00 0.00 0.00 81 1015.5
20260831234538 79 264 0.0 0.0 0.00 0.00 0.00 80 1015.2
20260831233043 80 261 0.0 0.0 0.00 0.00 0.00 79 1015.1
20260831231502 81 261 0.0 0.0 0.00 0.00 0.00 75 1015.4
20260831230027 82 261 0.0 0.0 0.00 0.00 0.00 74 1015.4
20260831224612 83 261 0.0 2.0 0.00 0.00 0.00 73 1015.5
20260831223021 84 187 0.0 0.0 0.00 0.00 0.00 70 1015.7
20260831221600 83 185 0.0 0.0 0.00 0.00 0.00 74 1015.7
20260831220032 82 173 0.0 0.0 0.00 0.00 0.00 74 1015.8
20260831214611 82 173 0.0 2.0 0.00 0.00 0.00 72 1015.8
20260831213022 83 242 0.0 3.0 0.00 0.00 0.00 69 1016.0
20260831211557 84 230 0.0 1.0 0.00 0.00 0.00 67 1015.7
20260831210018 85 223 1.0 4.0 0.00 0.00 0.00 64 1015.8
20260831204609 86 252 1.0 3.0 0.00 0.00 0.00 63 1015.9
20260831203023 85 180 1.0 5.0 0.00 0.00 0.00 67 1016.1
20260831201521 85 295 1.0 3.0 0.00 0.00 0.00 66 1016.3
20260831200104 84 254 1.0 4.0 0.00 0.00 0.00 69 1016.5
20260831194510 82 239 1.0 4.0 0.00 0.00 0.00 71 1016.7
20260831193047 82 250 0.0 3.0 0.00 0.00 0.00 69 1016.7
20260831191518 83 247 1.0 3.0 0.00 0.00 0.00 68 1016.8